Location: Caualo
(45.5667°N, 10.8667°E)
Time: 03:07:02
(UTC+00:00)

Cosmos 1076 Rocket - Pass Details

Date: 07 June 2020
Orbit: 588 x 614 km, 82.5° (Epoch: 06 July)

Event Time Altitude Azimuth Distance (km) Brightness Sun altitude
Exits shadow 01:39:49 21° 190° (S) 1,398 4.8 -14.2°
Maximum altitude 01:42:45 85° 277° (W) 623 3.5 -13.9°
Drops below altitude 10° 01:47:09 10° 8° (N) 1,981 7.2 -13.5°
Sets 01:49:23 0° 9° (N) 2,888 8.2 -13.2°
